Location: Paddlesworth
(51.1000°N, 1.1333°E)
Time: 07:23:28
(UTC+00:00)

CRYOSAT 2 - Pass Details

Date: 11 May 2021
Orbit: 714 x 725 km, 92.0° (Epoch: 20 June)

Event Time Altitude Azimuth Distance (km) Brightness Sun altitude
Exits shadow 20:53:44 - 176° (S) 2,488 6.7 -10.6°
Reaches altitude 10° 20:54:26 10° 177° (S) 2,213 6.4 -10.7°
Maximum altitude 20:59:20 83° 265° (W) 737 4.5 -11.2°
Drops below altitude 10° 21:04:16 10° 354° (N) 2,225 7.8 -11.7°
Sets 21:06:34 0° 355° (N) 3,149 8.7 -11.9°
